Location: Hokitika
(42.7170°S, 170.9670°E)
Time: 14:09:51
(UTC+13:00)

Cosmos 1844 Rocket - Pass Details

Date: 24 January 2019
Orbit: 824 x 845 km, 71.0° (Epoch: 18 February)

Event Time Altitude Azimuth Distance (km) Brightness Sun altitude
Rises 22:51:53 0° 199° (SSW) 3,408 7.1 -16.0°
Reaches altitude 10° 22:54:30 10° 191° (SSW) 2,471 6.0 -16.3°
Maximum altitude 22:59:49 40° 122° (ESE) 1,234 3.5 -16.9°
Enters shadow 23:02:36 24° 70° (ENE) 1,666 3.7 -17.3°
